Asyut, Egypt

9:11 PM EET on March 25, 2017 (GMT +0200)
Asyut

Weather History for HEAT - February, 2014

Change the Weather History Date:

Saturday, February 15, 2014

  Actual Average Record
Temperature  
Mean Temperature 59 °F -  
Max Temperature 72 °F 74 °F - ()
Min Temperature 46 °F 46 °F - ()
Degree Days  
Heating Degree Days 6    
Growing Degree Days 9 (Base 50)    
Moisture  
Dew Point 37 °F    
Average Humidity 44    
Maximum Humidity 62    
Minimum Humidity 14    
Precipitation  
Precipitation 0.00 in 0.00 in - ()
Sea Level Pressure  
Sea Level Pressure 30.03 in    
Wind  
Wind Speed 11 mph ()    
Max Wind Speed 28 mph    
Max Gust Speed -    
Visibility 2.8 miles    
Events      
T = Trace of Precipitation, MM = Missing Value Source: Averaged Metar Reports

Daily Weather History Graph

Daily Weather History Graph

Search for Another Location

Airport or City:

Trip Planner

Search our weather history database for the weather conditions in past years. The results will help you decide how hot, cold, wet, or windy it might be!

Date:

Astronomy

Feb. 15, 2014 Rise Set
Actual Time 6:32 AM EET 5:47 PM EET
Civil Twilight 6:08 AM EET 6:11 PM EET
Nautical Twilight 5:41 AM EET 6:38 PM EET
Astronomical Twilight 5:14 AM EET 7:06 PM EET
Moon 6:20 PM EET (2/15) 6:27 AM EET (2/15)
Length of Visible Light 12h 02m
Length of Day
11h 15m
Full, 100% of the Moon is Illuminated
Feb 15
Full
Feb 22
Last Quarter
Mar 1
New
Mar 8
First Quarter
Mar 16
Full

Hourly Weather History & Observations

Time (EET) Temp. Dew Point Humidity Pressure Visibility Wind Dir Wind Speed Gust Speed Precip Events Conditions
12:00 AM 51.8 °F 39.2 °F 62% 30.09 in - SW 5.8 mph - N/A   Clear
1:00 AM 51.8 °F 39.2 °F 62% 30.09 in - SW 2.3 mph - N/A   Clear
2:00 AM 50 °F 35 °F 44% 30.09 in 6 mi WSW 9.2 mph - -  
2:00 AM 50.0 °F 35.6 °F 58% 30.06 in - WSW 9.2 mph - N/A   Clear
3:00 AM 48.2 °F 35.6 °F 62% 30.06 in - SW 10.4 mph - N/A   Clear
4:00 AM 48.2 °F 35.6 °F 62% 30.06 in - WSW 9.2 mph - N/A   Clear
5:00 AM 49 °F 34 °F 45% 30.07 in 6 mi WSW 10.4 mph - -  
5:00 AM 50.0 °F 33.8 °F 54% 30.04 in - WSW 10.4 mph - N/A   Clear
6:00 AM 48.2 °F 33.8 °F 58% 30.04 in - WSW 9.2 mph - N/A   Clear
7:00 AM 48.2 °F 33.8 °F 58% 30.06 in - SW 8.1 mph - N/A   Clear
8:00 AM 49 °F 34 °F 44% 30.09 in 6 mi South 8.1 mph - -  
8:00 AM 48.2 °F 33.8 °F 58% 30.06 in - South 8.1 mph - N/A   Clear
9:00 AM 48.2 °F 33.8 °F 58% 30.06 in - South 8.1 mph - N/A   Clear
10:00 AM 57.2 °F 37.4 °F 48% 30.06 in - WSW 15.0 mph - N/A   Clear
11:00 AM 66 °F 38 °F 24% 30.05 in 6 mi West 18.4 mph - -  
11:00 AM 59.0 °F 37.4 °F 45% 30.06 in - West 18.4 mph - N/A   Clear
12:00 PM 68.0 °F 35.6 °F 30% 30.04 in - West 23.0 mph - N/A   Clear
1:00 PM 68.0 °F 35.6 °F 30% 30.01 in 4.3 mi West 25.3 mph - N/A   Unknown
2:00 PM 72 °F 33 °F 14% 29.96 in 2 mi West 27.6 mph - -   Blowing Sand
2:00 PM 71.6 °F 33.8 °F 25% 29.98 in 1.9 mi West 27.6 mph - N/A   Sand
3:00 PM 71.6 °F 33.8 °F 25% 29.95 in 1.2 mi West 26.5 mph - N/A   Sand
4:00 PM 69.8 °F 33.8 °F 27% 29.95 in 0.6 mi West 26.5 mph - N/A   Sand
5:00 PM 69 °F 36 °F 19% 29.95 in 1 mi West 27.6 mph - -   Blowing Sand
5:00 PM 69.8 °F 35.6 °F 28% 29.95 in 0.6 mi West 27.6 mph - N/A   Sand
6:00 PM 66.2 °F 35.6 °F 32% 29.95 in 1.2 mi West 24.2 mph - N/A   Sand
7:00 PM 62.6 °F 35.6 °F 37% 29.98 in 1.9 mi West 18.4 mph - N/A   Sand
8:00 PM 62 °F 44 °F 39% 30.01 in 2 mi NW 11.5 mph - -   Blowing Sand
8:00 PM 60.8 °F 42.8 °F 52% 30.01 in 1.9 mi NW 15.0 mph - N/A   Sand
9:00 PM 59.0 °F 42.8 °F 55% 30.01 in 1.9 mi WNW 11.5 mph - N/A   Sand
10:00 PM 57.2 °F 42.8 °F 59% 30.04 in 3.1 mi WNW 10.4 mph - N/A   Unknown
11:00 PM 57 °F 44 °F 50% 30.05 in 3 mi WNW 9.2 mph - -   Widespread Dust
11:00 PM 57.2 °F 42.8 °F 59% 30.04 in 3.1 mi WNW 9.2 mph - N/A   Sand